Regional Weather Roundup
Issued by NWS Charleston, SC

Current Version | Previous Version | Graphics & Text | Print | Product List | Glossary On
Versions: 1 2 3 4 5 6 7 8 9 10 11 12 13 14 15 16 17 18 19 20 21 22 23 24 25 26 27 28 29 30 31 32 33 34 35 36 37 38 39 40 41 42 43 44 45 46 47 48 49 50
000 ASUS42 KCHS 052228 RWRCHS REGIONAL WEATHER ROUNDUP NATIONAL WEATHER SERVICE CHARLESTON SC 600 PM EDT THU MAY 05 2016 NOTE: "FAIR" INDICATES FEW OR NO CLOUDS BELOW 12,000 FEET WITH NO SIGNIFICANT WEATHER AND/OR OBSTRUCTIONS TO VISIBILITY. NOT ALL STATIONS ARE QUALITY CONTROLLED. USE DATA WITH CAUTION... ESPECIALLY DEWPOINT OBSERVATIONS. SCZ027-030-031-034>040-042>050-052300- ...SOUTHEAST SOUTH CAROLINA... CITY SKY/WX TMP DP RH WIND PRES REMARKS N CHARLESTON MOSUNNY 66 41 40 NW17 29.63R WATERFRONT PRK N/A 70 40 33 W9 29.60R MOUNT PLEASANT FAIR 68 43 40 NW13G24 29.64R JOHNS ISLAND FAIR 70 39 32 W18G24 29.64R PINOPOLIS N/A 68 46 45 NW16 29.56R MONCKS CORNER MOCLDY 63 34 34 NW5 29.65R SUMMERVILLE MOCLDY 68 43 40 NW12G20 29.66R BEAUFORT MCAS MOSUNNY 70 37 29 NW16G33 29.65R BEAUFORT ARPT FAIR 70 36 28 W18G35 29.66R HILTON HEAD IS MOSUNNY 70 39 32 W13G28 29.67R WALTERBORO MOCLDY 68 37 32 NW7 29.67R ALLENDALE FAIR 66 36 32 N13 29.68R ...SOUTHERN MIDLANDS AND PEE DEE... CITY SKY/WX TMP DP RH WIND PRES REMARKS GEORGETOWN FAIR 61 48 63 NW9 29.64R KINGSTREE FAIR 59 46 63 NW7 29.65R ORANGEBURG PTSUNNY 63 40 42 NW12G18 29.67R BARNWELL FAIR 63 46 55 N9 29.70R AIKEN LGT RAIN 59 41 51 NW9 29.72R MANNING FAIR 64 37 36 NW9 29.64R COLUMBIA PTSUNNY 63 42 46 VRB5 29.65R SUMTER LGT RAIN 61 45 55 N10 29.63R FLORENCE TSTM 54 46 74 W12G33 29.67R MYRTLE BEACH MOSUNNY 63 45 51 NW8 29.63R N MYRTLE BEACH CLOUDY 59 53 80 VRB3 29.61R $$ GAZ063-065-086>088-099>101-113>116-118-119-134>141-150-052300- ...SOUTHEAST GEORGIA... CITY SKY/WX TMP DP RH WIND PRES REMARKS SAVANNAH ARPT MOSUNNY 71 35 26 NW15G29 29.67R HUNTER AAF MOSUNNY 71 39 31 NW17G31 29.65R FORT STEWART MOSUNNY 69 37 30 W20G28 29.68R STATESBORO MOSUNNY 70 43 37 NW14G23 29.70R SYLVANIA PTCLDY 70 41 34 NW14G20 29.70R CLAXTON FAIR 70 41 35 W21G29 29.71R ...CSRA...CENTRAL AND FAR SOUTHEAST GEORGIA... CITY SKY/WX TMP DP RH WIND PRES REMARKS THOMSON CLOUDY 55 50 82 SW5 29.79F AUGUSTA-BUSH LGT RAIN 57 45 64 W29G39 29.71R AUGUSTA-DANIEL PTSUNNY 61 40 45 W20G33 29.72R SWAINSBORO MOCLDY 68 36 30 NW13G21 29.72R VIDALIA SUNNY 68 36 30 NW12G24 29.72S EASTMAN FAIR 70 38 31 W13G18 29.76S HAZLEHURST MOCLDY 71 37 29 NW5G21 29.73S ALMA PTSUNNY 70 37 29 NW20G26 29.73R WAYCROSS CLOUDY 71 40 33 N14 29.73R JESUP MOCLDY 72 41 33 NW18G25 29.73R BAXLEY PTSUNNY 70 36 28 NW14G23 29.73R BRUNSWICK MOSUNNY 77 37 24 W17G25 29.72R SAINT SIMONS MOSUNNY 72 36 26 W16G26 29.69S $$ SCZ027-028-034-036>038-045-046-048>050-GAZ119-141-052300- ...LAKE AND SUPPLEMENTAL COASTAL OBSERVATIONS... STATION/POSITION TIME TEMP WIND PRES WAVE SWELL AIR SEA DIR/SP/G HT/PER HT/PER/DIR (UTC) (F) (DEG/KT/KT) (MB) (FT/S) (FT/S/D) WINYAH BAY 2145 62 330/ 9 1002.0R LAKE MURRAY 2100 60 280/ 15/ 25 1003.7R ACE BASIN NERRS 2100 70 290/ 6 1004.0R FORT PULASKI 2200 73 290/ 20/ 24 1004.9R SAPELO ISLAND 2200 71 300/ 18 1006.0R $$ ANZ835-935-AMZ111-154-330-350-352-354-370-450-454-472-052300- ...C-MAN AND BUOY OBSERVATIONS... STATION/POSITION TIME TEMP WIND PRES WAVE SWELL AIR SEA DIR/SP/G HT/PER HT/PER/DIR (UTC) (F) (DEG/KT/KT) (MB) (FT/S) (FT/S/D) BUOY 41004 2150 69 74 280/ 19/ 25 1002.2R 6/ 6 BUOY 41008 NOT AVBL FOLLY BEACH CMAN 2200 69 290/ 11/ 17 1003.4R CAPERS NEARSHORE 2208 67 70 320/ 17/ 25 1002.7R FRIPP NEARSHORE 2108 68 69 320/ 19/ 27 1002.9R STATION/POSITION TIME TEMP WIND PRES WAVE SWELL AIR SEA DIR/SP/G HT/PER HT/PER/DIR (UTC) (F) (DEG/KT/KT) (MB) (FT/S) (FT/S/D) 5E ST. MARYS GA 2121 71 N/A 3/ 4 FRYING PAN BUOY 2200 66 72 320/ 17/ 23 1001.4R BUOY 41025 2150 57 77 10/ 17/ 21 999.0R 6/ 7 2/ 70/ 8 CAPE LOOKOUT NC 2200 56 330/ 11/ 14 1000.0R BUOY 41002 2150 73 74 260/ 25/ 29 1000.8F 8/ 8 2/250/13 BUOY 41010 2120 73 78 290/ 17/ 23 1006.3R ST AUGUSTINE FL 2200 75 71 310/ 12/ 16 1006.3R $$

USA.gov is the U.S. government's official web portal to all federal, state and local government web resources and services.